timestamp,surface_pressure_avg,surface_temp_avg,battery_voltage,lat,long
2019-05-12 00:00:00+00:00,223.8781,2.7,12.89,47.84626,-54.09684
2019-05-12 00:10:00+00:00,221.3915,2.6,12.81,47.84626,-54.09684
2019-05-12 00:20:00+00:00,225.2314,2.6,12.89,47.84626,-54.09684
2019-05-12 00:30:00+00:00,232.4248,2.5,12.89,47.84626,-54.09684
2019-05-12 00:40:00+00:00,236.6913,2.3,12.97,47.84626,-54.09684
2019-05-12 00:50:00+00:00,241.0897,2.3,12.97,47.84626,-54.09684
2019-05-12 01:00:00+00:00,245.0215,2.3,12.89,47.84626,-54.09684
2019-05-12 01:10:00+00:00,247.3614,2.35,12.81,47.84626,-54.09684
2019-05-12 01:20:00+00:00,248.8531,2.4,12.89,47.84626,-54.09684
2019-05-12 01:30:00+00:00,250.6981,2.49,12.89,47.84626,-54.09684
2019-05-12 01:40:00+00:00,257.8731,2.5,12.89,47.84626,-54.09684
2019-05-12 01:50:00+00:00,263.0881,2.5,12.97,47.84626,-54.09684
2019-05-12 02:00:00+00:00,269.4198,2.4,12.81,47.84626,-54.09684
2019-05-12 02:10:00+00:00,275.5747,2.5,12.81,47.84626,-54.09684
2019-05-12 02:20:00+00:00,283.6747,2.55,12.89,47.84626,-54.09684
2019-05-12 02:30:00+00:00,289.7414,2.54,12.89,47.84626,-54.09684
2019-05-12 02:40:00+00:00,297.3397,2.5,12.89,47.84626,-54.09684
2019-05-12 02:50:00+00:00,304.0314,2.47,12.89,47.84626,-54.09684
2019-05-12 03:00:00+00:00,311.6964,2.3,12.81,47.84626,-54.09684
2019-05-12 03:10:00+00:00,317.2797,2.28,12.73,47.84626,-54.09684
2019-05-12 03:20:00+00:00,320.8945,2.19,12.81,47.84626,-54.09684
2019-05-12 03:30:00+00:00,324.9864,2.2,12.81,47.84626,-54.09684
2019-05-12 03:40:00+00:00,331.5547,2.27,12.89,47.84626,-54.09684
2019-05-12 03:50:00+00:00,339.2231,2.1,12.89,47.84626,-54.09684
2019-05-12 04:00:00+00:00,338.4998,2.0,12.81,47.84626,-54.09684
2019-05-12 04:10:00+00:00,338.2645,1.9,12.73,47.84626,-54.09684
2019-05-12 04:20:00+00:00,340.473,1.88,12.81,47.84626,-54.09684
2019-05-12 04:30:00+00:00,342.6129,1.89,12.81,47.84626,-54.09684
2019-05-12 04:40:00+00:00,341.7979,1.9,12.81,47.84626,-54.09684
2019-05-12 04:50:00+00:00,342.3412,1.9,12.81,47.84626,-54.09684
2019-05-12 05:00:00+00:00,350.423,1.89,12.81,47.84626,-54.09684
2019-05-12 05:10:00+00:00,351.808,1.89,12.73,47.84626,-54.09684
2019-05-12 05:20:00+00:00,348.9797,1.94,12.81,47.84626,-54.09684
2019-05-12 05:30:00+00:00,350.1597,2.0,12.81,47.84626,-54.09684
2019-05-12 05:40:00+00:00,352.903,2.0,12.81,47.84626,-54.09684
2019-05-12 05:50:00+00:00,348.4747,2.0,12.81,47.84626,-54.09684
2019-05-12 06:00:00+00:00,345.5979,2.0,12.73,47.84626,-54.09684
2019-05-12 06:10:00+00:00,345.5362,2.0,12.65,47.84626,-54.09684
2019-05-12 06:20:00+00:00,341.958,2.06,12.73,47.84626,-54.09684
2019-05-12 06:30:00+00:00,336.7646,2.1,12.73,47.84626,-54.09684
2019-05-12 06:40:00+00:00,334.9613,2.0,12.81,47.84626,-54.09684
2019-05-12 06:50:00+00:00,332.6878,2.09,12.81,47.84626,-54.09684
2019-05-12 07:00:00+00:00,331.0831,2.1,12.73,47.84626,-54.09684
2019-05-12 07:10:00+00:00,326.198,2.19,12.65,47.84626,-54.09684
2019-05-12 07:20:00+00:00,319.363,2.2,12.73,47.84626,-54.09684
2019-05-12 07:30:00+00:00,314.4396,2.2,12.73,47.84626,-54.09684
2019-05-12 07:40:00+00:00,311.2347,2.19,12.73,47.84626,-54.09684
2019-05-12 07:50:00+00:00,301.583,2.2,12.73,47.84626,-54.09684
2019-05-12 08:00:00+00:00,290.7564,2.29,12.65,47.84626,-54.09684
2019-05-12 08:10:00+00:00,284.4564,2.3,12.65,47.84626,-54.09684
2019-05-12 08:20:00+00:00,279.493,2.29,12.73,47.84626,-54.09684
2019-05-12 08:30:00+00:00,270.5764,2.3,12.73,47.84626,-54.09684
2019-05-12 08:40:00+00:00,262.8847,2.3,12.73,47.84626,-54.09684
2019-05-12 08:50:00+00:00,258.1014,2.3,12.73,47.84626,-54.09684
2019-05-12 09:00:00+00:00,251.8481,2.3,12.73,47.84626,-54.09684
2019-05-12 09:10:00+00:00,246.0981,2.3,12.65,47.84626,-54.09684
2019-05-12 09:20:00+00:00,247.2329,2.3,12.73,47.84626,-54.09684
2019-05-12 09:30:00+00:00,245.2964,2.3,12.73,47.84626,-54.09684
2019-05-12 09:40:00+00:00,238.3914,2.3,12.81,47.84626,-54.09684
2019-05-12 09:50:00+00:00,235.063,2.3,12.81,47.84626,-54.09684
2019-05-12 10:00:00+00:00,236.0014,2.3,12.81,47.84626,-54.09684
2019-05-12 10:10:00+00:00,229.0348,2.3,12.73,47.84626,-54.09684
2019-05-12 10:20:00+00:00,224.0697,2.39,12.81,47.84626,-54.09684
2019-05-12 10:30:00+00:00,224.4449,2.5,12.89,47.84626,-54.09684
2019-05-12 10:40:00+00:00,222.8764,2.61,12.97,47.84626,-54.09684
2019-05-12 10:50:00+00:00,216.1181,2.7,13.05,47.84626,-54.09684
2019-05-12 11:00:00+00:00,214.4548,2.7,12.97,47.84626,-54.09684
2019-05-12 11:10:00+00:00,218.2547,2.6,12.97,47.84626,-54.09684
2019-05-12 11:20:00+00:00,219.1514,2.5,13.05,47.84626,-54.09684
2019-05-12 11:30:00+00:00,218.8414,2.59,13.13,47.84626,-54.09684
2019-05-12 11:40:00+00:00,220.088,2.6,13.21,47.84626,-54.09684
2019-05-12 11:50:00+00:00,219.738,2.6,13.29,47.84626,-54.09684
2019-05-12 12:00:00+00:00,220.2381,2.68,13.37,47.84626,-54.09684
2019-05-12 12:10:00+00:00,221.5131,2.7,13.53,47.84626,-54.09684
2019-05-12 12:20:00+00:00,221.4748,2.7,13.68,47.84626,-54.09684
2019-05-12 12:30:00+00:00,219.7664,2.7,13.84,47.84626,-54.09684
2019-05-12 12:40:00+00:00,220.0281,2.7,14.08,47.84626,-54.09684
2019-05-12 12:50:00+00:00,221.8998,2.7,14.08,47.84626,-54.09684
2019-05-12 13:00:00+00:00,224.4381,2.7,14.08,47.84626,-54.09684
2019-05-12 13:10:00+00:00,227.2731,2.7,14.56,47.84626,-54.09684
2019-05-12 13:20:00+00:00,229.9531,2.7,16.15,47.84626,-54.09684
2019-05-12 13:30:00+00:00,233.6797,2.7,14.88,47.84626,-54.09684
2019-05-12 13:40:00+00:00,237.3465,2.7,14.72,47.84626,-54.09684
2019-05-12 13:50:00+00:00,240.0298,2.7,14.64,47.84626,-54.09684
2019-05-12 14:00:00+00:00,241.8047,2.7,14.64,47.84626,-54.09684
2019-05-12 14:10:00+00:00,245.4515,2.7,14.56,47.84626,-54.09684
2019-05-12 14:20:00+00:00,247.4848,2.7,14.64,47.84626,-54.09684
2019-05-12 14:30:00+00:00,250.9314,2.7,14.56,47.84626,-54.09684
2019-05-12 14:40:00+00:00,258.9915,2.7,15.04,47.84626,-54.09684
2019-05-12 14:50:00+00:00,265.2997,2.7,14.56,47.84626,-54.09684
2019-05-12 15:00:00+00:00,268.1281,2.71,15.11,47.84626,-54.09684
2019-05-12 15:10:00+00:00,275.1031,2.7,14.48,47.84626,-54.09684
2019-05-12 15:20:00+00:00,284.4997,2.7,14.64,47.84626,-54.09684
2019-05-12 15:30:00+00:00,290.053,2.7,14.56,47.84626,-54.09684
2019-05-12 15:40:00+00:00,294.0981,2.7,14.88,47.84626,-54.09684
2019-05-12 15:50:00+00:00,301.0047,2.65,15.2,47.84626,-54.09684
2019-05-12 16:00:00+00:00,305.4447,2.66,14.56,47.84626,-54.09684
2019-05-12 16:10:00+00:00,302.9114,2.65,14.4,47.84626,-54.09684
2019-05-12 16:20:00+00:00,306.8181,2.6,14.64,47.84626,-54.09684
2019-05-12 16:30:00+00:00,310.3531,2.6,14.8,47.84626,-54.09684
2019-05-12 16:40:00+00:00,310.4197,2.6,14.8,47.84626,-54.09684
2019-05-12 16:50:00+00:00,308.653,2.6,14.56,47.84626,-54.09684
2019-05-12 17:00:00+00:00,314.8563,2.6,14.48,47.84626,-54.09684
2019-05-12 17:10:00+00:00,318.808,2.6,14.56,47.84626,-54.09684
2019-05-12 17:20:00+00:00,320.4197,2.6,14.64,47.84626,-54.09684
2019-05-12 17:30:00+00:00,320.1862,2.6,14.64,47.84626,-54.09684
2019-05-12 17:40:00+00:00,329.108,2.59,14.56,47.84626,-54.09684
2019-05-12 17:50:00+00:00,329.028,2.57,14.56,47.84626,-54.09684
2019-05-12 18:00:00+00:00,326.7097,2.57,14.48,47.84626,-54.09684
2019-05-12 18:10:00+00:00,325.0264,2.55,14.48,47.84626,-54.09684
2019-05-12 18:20:00+00:00,328.7863,2.55,14.48,47.84626,-54.09684
2019-05-12 18:30:00+00:00,324.4297,2.51,14.48,47.84626,-54.09684
2019-05-12 18:40:00+00:00,321.283,2.53,14.48,47.84626,-54.09684
2019-05-12 18:50:00+00:00,324.2947,2.5,14.48,47.84626,-54.09684
2019-05-12 19:00:00+00:00,322.3463,2.5,14.32,47.84626,-54.09684
2019-05-12 19:10:00+00:00,317.8513,2.54,14.24,47.84626,-54.09684
2019-05-12 19:20:00+00:00,316.0046,2.57,14.32,47.84626,-54.09684
2019-05-12 19:30:00+00:00,310.6747,2.6,14.32,47.84626,-54.09684
2019-05-12 19:40:00+00:00,302.808,2.59,14.4,47.84626,-54.09684
2019-05-12 19:50:00+00:00,299.5463,2.58,14.4,47.84626,-54.09684
2019-05-12 20:00:00+00:00,297.3331,2.5,14.32,47.84626,-54.09684
2019-05-12 20:10:00+00:00,288.6897,2.5,14.16,47.84626,-54.09684
2019-05-12 20:20:00+00:00,278.0397,2.37,14.24,47.84626,-54.09684
2019-05-12 20:30:00+00:00,274.1647,3.29,14.24,47.84626,-54.09684
2019-05-12 20:40:00+00:00,270.7181,3.1,14.24,47.84626,-54.09684
2019-05-12 20:50:00+00:00,266.0147,2.54,14.24,47.84626,-54.09684
2019-05-12 21:00:00+00:00,260.8064,2.2,14.16,47.84626,-54.09684
2019-05-12 21:10:00+00:00,258.1281,2.2,14.0,47.84626,-54.09684
2019-05-12 21:20:00+00:00,253.1465,2.2,14.0,47.84626,-54.09684
2019-05-12 21:30:00+00:00,244.1331,2.39,14.0,47.84626,-54.09684
2019-05-12 21:40:00+00:00,239.1397,2.7,14.0,47.84626,-54.09684
2019-05-12 21:50:00+00:00,238.7547,2.4,14.0,47.84626,-54.09684
2019-05-12 22:00:00+00:00,233.7548,2.4,13.92,47.84626,-54.09684
2019-05-12 22:10:00+00:00,226.8531,2.63,13.68,47.84626,-54.09684
2019-05-12 22:20:00+00:00,224.2798,2.7,13.68,47.84626,-54.09684
2019-05-12 22:30:00+00:00,224.2797,2.82,13.68,47.84626,-54.09684
2019-05-12 22:40:00+00:00,226.3415,2.79,13.68,47.84626,-54.09684
2019-05-12 22:50:00+00:00,226.8231,2.2,13.6,47.84626,-54.09684
2019-05-12 23:00:00+00:00,224.6948,2.31,13.53,47.84626,-54.09684
2019-05-12 23:10:00+00:00,221.7031,2.55,13.37,47.84626,-54.09684
2019-05-12 23:20:00+00:00,224.2881,2.67,13.29,47.84626,-54.09684
2019-05-12 23:30:00+00:00,224.7081,2.9,13.29,47.84626,-54.09684
2019-05-12 23:40:00+00:00,219.7698,2.96,13.29,47.84626,-54.09684
2019-05-12 23:50:00+00:00,217.5147,2.8,13.29,47.84626,-54.09684
